• In Denmark
  • List of Countries
  • For 7 days
  • Water Temperature
  • Satellite Maps
  • Weather Map
  • Weather Widgets
  • user-avatar
    Login

    Hourly Weather Townsville

    Today, 23 January, Tuesday

    Time Temperature Precipitation Wind Pressure Humidity
    00:00 +26°C° 0.1 mm 4 mps 749 mmHg 89%
    01:00 +26°C° 0.1 mm 4 mps 749 mmHg 90%
    02:00 +26°C° 0.1 mm 4 mps 749 mmHg 91%
    03:00 +26°C° 0.1 mm 4 mps 749 mmHg 91%
    04:00 +26°C° 0 mm 4 mps 748 mmHg 92%
    05:00 +26°C° 0.3 mm 4 mps 749 mmHg 91%
    06:00 +26°C° 0.3 mm 4 mps 749 mmHg 90%
    07:00 +26°C° 0.3 mm 5 mps 749 mmHg 89%
    08:00 +28°C° 0.3 mm 5 mps 749 mmHg 80%
    09:00 +30°C° 0.3 mm 5 mps 749 mmHg 70%
    10:00 +33°C° 0.3 mm 5 mps 749 mmHg 61%
    11:00 +32°C° 0.2 mm 5 mps 749 mmHg 63%
    12:00 +32°C° 0.2 mm 5 mps 748 mmHg 65%
    13:00 +32°C° 0.2 mm 5 mps 748 mmHg 67%
    14:00 +30°C° 0.6 mm 5 mps 748 mmHg 72%
    15:00 +29°C° 0.6 mm 5 mps 747 mmHg 78%
    16:00 +28°C° 0.6 mm 5 mps 747 mmHg 84%
    17:00 +28°C° 1.3 mm 4 mps 747 mmHg 87%
    18:00 +27°C° 1.3 mm 4 mps 748 mmHg 90%
    19:00 +27°C° 1.3 mm 4 mps 748 mmHg 93%
    20:00 +27°C° 0.8 mm 4 mps 748 mmHg 94%
    21:00 +27°C° 0.8 mm 4 mps 748 mmHg 95%
    22:00 +27°C° 0.8 mm 4 mps 749 mmHg 95%
    23:00 +27°C° 0.4 mm 4 mps 748 mmHg 95%

    Tomorrow, 24 January, Wednesday

    Time Temperature Precipitation Wind Pressure Humidity
    00:00 +26°C° 0.4 mm 4 mps 748 mmHg 95%
    01:00 +26°C° 0.4 mm 4 mps 748 mmHg 94%
    02:00 +26°C° 0.4 mm 4 mps 747 mmHg 94%
    03:00 +26°C° 0.4 mm 4 mps 747 mmHg 95%
    04:00 +26°C° 0.4 mm 4 mps 746 mmHg 95%
    05:00 +26°C° 0.4 mm 4 mps 747 mmHg 94%
    06:00 +26°C° 0.4 mm 4 mps 747 mmHg 93%
    07:00 +26°C° 0.4 mm 3 mps 747 mmHg 92%
    08:00 +27°C° 0.4 mm 4 mps 747 mmHg 87%
    09:00 +28°C° 0.4 mm 4 mps 748 mmHg 82%
    10:00 +29°C° 0.4 mm 4 mps 748 mmHg 78%
    11:00 +30°C° 0.2 mm 4 mps 747 mmHg 73%
    12:00 +32°C° 0.2 mm 4 mps 747 mmHg 68%
    13:00 +33°C° 0.2 mm 4 mps 746 mmHg 63%
    14:00 +33°C° 1 mm 3 mps 746 mmHg 67%
    15:00 +31°C° 1 mm 3 mps 745 mmHg 72%
    16:00 +30°C° 1 mm 3 mps 745 mmHg 76%
    17:00 +29°C° 1 mm 3 mps 745 mmHg 81%
    18:00 +28°C° 1 mm 2 mps 746 mmHg 86%
    19:00 +27°C° 1 mm 2 mps 746 mmHg 91%
    20:00 +27°C° 0.8 mm 2 mps 746 mmHg 92%
    21:00 +27°C° 0.8 mm 2 mps 747 mmHg 92%
    22:00 +27°C° 0.8 mm 2 mps 747 mmHg 93%
    23:00 +27°C° 0.9 mm 2 mps 747 mmHg 94%

    Day after tomorrow, 25 January, Thursday

    Time Temperature Precipitation Wind Pressure Humidity
    00:00 +26°C° 0.9 mm 2 mps 747 mmHg 94%
    01:00 +26°C° 0.9 mm 2 mps 746 mmHg 94%
    02:00 +26°C° 0.4 mm 2 mps 746 mmHg 94%
    03:00 +26°C° 0.4 mm 2 mps 746 mmHg 94%
    04:00 +26°C° 0.4 mm 2 mps 745 mmHg 94%
    05:00 +26°C° 0 mm 3 mps 746 mmHg 93%
    06:00 +26°C° 0 mm 3 mps 746 mmHg 91%
    07:00 +27°C° 0 mm 3 mps 746 mmHg 90%
    08:00 +28°C° 0 mm 3 mps 746 mmHg 84%
    09:00 +29°C° 0 mm 3 mps 747 mmHg 78%
    10:00 +31°C° 0 mm 3 mps 747 mmHg 72%
    11:00 +31°C° 0.5 mm 3 mps 746 mmHg 71%
    12:00 +33°C° 0.5 mm 3 mps 746 mmHg 70%
    13:00 +33°C° 0.5 mm 3 mps 745 mmHg 70%
    14:00 +33°C° 1.4 mm 3 mps 745 mmHg 74%
    15:00 +32°C° 1.4 mm 4 mps 744 mmHg 78%
    16:00 +30°C° 1.4 mm 4 mps 744 mmHg 81%
    17:00 +29°C° 1 mm 5 mps 744 mmHg 85%
    18:00 +28°C° 1 mm 5 mps 745 mmHg 89%
    19:00 +28°C° 1 mm 5 mps 745 mmHg 93%
    20:00 +27°C° 1.2 mm 5 mps 746 mmHg 93%
    21:00 +27°C° 1.2 mm 5 mps 746 mmHg 93%
    22:00 +27°C° 1.2 mm 5 mps 747 mmHg 93%
    23:00 +27°C° 0.5 mm 5 mps 747 mmHg 94%

    26 January, Friday

    Time Temperature Precipitation Wind Pressure Humidity
    00:00 +26°C° 0.5 mm 5 mps 746 mmHg 95%
    01:00 +26°C° 0.5 mm 5 mps 746 mmHg 95%
    02:00 +26°C° 0.2 mm 5 mps 746 mmHg 96%
    03:00 +26°C° 0.2 mm 5 mps 745 mmHg 96%
    04:00 +25°C° 0.2 mm 4 mps 745 mmHg 96%
    05:00 +26°C° 0 mm 5 mps 745 mmHg 95%
    06:00 +26°C° 0 mm 5 mps 746 mmHg 94%
    07:00 +26°C° 0 mm 5 mps 746 mmHg 92%
    08:00 +28°C° 0 mm 5 mps 746 mmHg 84%
    09:00 +30°C° 0 mm 5 mps 746 mmHg 75%
    10:00 +33°C° 0 mm 5 mps 746 mmHg 67%
    11:00 +34°C° 0.2 mm 5 mps 746 mmHg 66%
    12:00 +34°C° 0.2 mm 5 mps 745 mmHg 64%
    13:00 +35°C° 0.2 mm 5 mps 745 mmHg 63%
    14:00 +34°C° 1.2 mm 5 mps 744 mmHg 66%
    15:00 +34°C° 1.2 mm 5 mps 744 mmHg 69%
    16:00 +33°C° 1.2 mm 6 mps 743 mmHg 72%
    17:00 +32°C° 1.9 mm 6 mps 744 mmHg 76%
    18:00 +30°C° 1.9 mm 6 mps 745 mmHg 81%
    19:00 +28°C° 1.9 mm 7 mps 745 mmHg 85%
    20:00 +28°C° 0.5 mm 6 mps 746 mmHg 86%
    21:00 +27°C° 0.5 mm 6 mps 746 mmHg 87%
    22:00 +27°C° 0.5 mm 6 mps 747 mmHg 88%
    23:00 +27°C° 0.1 mm 6 mps 746 mmHg 89%

    27 January, Saturday

    Time Temperature Precipitation Wind Pressure Humidity
    00:00 +26°C° 0.1 mm 6 mps 746 mmHg 90%
    01:00 +26°C° 0.1 mm 6 mps 746 mmHg 91%
    02:00 +26°C° 0.1 mm 6 mps 745 mmHg 91%
    03:00 +26°C° 0.1 mm 5 mps 745 mmHg 92%
    04:00 +26°C° 0.1 mm 5 mps 745 mmHg 92%
    05:00 +26°C° 0 mm 5 mps 745 mmHg 91%
    06:00 +26°C° 0 mm 6 mps 745 mmHg 90%
    07:00 +26°C° 0 mm 6 mps 746 mmHg 89%
    08:00 +28°C° 0 mm 6 mps 746 mmHg 82%
    09:00 +29°C° 0 mm 6 mps 746 mmHg 75%
    10:00 +32°C° 0 mm 6 mps 746 mmHg 69%
    11:00 +33°C° 0.1 mm 6 mps 746 mmHg 66%
    12:00 +33°C° 0.1 mm 6 mps 745 mmHg 63%
    13:00 +34°C° 0.1 mm 6 mps 745 mmHg 60%
    14:00 +34°C° 0.3 mm 6 mps 745 mmHg 62%
    15:00 +33°C° 0.3 mm 6 mps 744 mmHg 64%
    16:00 +33°C° 0.3 mm 7 mps 744 mmHg 66%
    17:00 +32°C° 0.2 mm 6 mps 744 mmHg 71%
    18:00 +30°C° 0.2 mm 6 mps 745 mmHg 76%
    19:00 +28°C° 0.2 mm 6 mps 745 mmHg 81%
    20:00 +28°C° 0 mm 6 mps 745 mmHg 82%
    21:00 +27°C° 0 mm 6 mps 746 mmHg 83%
    22:00 +27°C° 0 mm 6 mps 746 mmHg 84%
    23:00 +27°C° 0 mm 6 mps 746 mmHg 86%

    28 January, Sunday

    Time Temperature Precipitation Wind Pressure Humidity
    00:00 +26°C° 0 mm 6 mps 745 mmHg 87%
    01:00 +26°C° 0 mm 5 mps 745 mmHg 88%
    02:00 +25°C° 0 mm 5 mps 745 mmHg 89%
    03:00 +25°C° 0 mm 5 mps 744 mmHg 90%
    04:00 +25°C° 0 mm 5 mps 744 mmHg 91%
    05:00 +25°C° 0 mm 5 mps 744 mmHg 90%
    06:00 +26°C° 0 mm 5 mps 745 mmHg 88%
    07:00 +26°C° 0 mm 5 mps 745 mmHg 87%
    08:00 +28°C° 0 mm 5 mps 745 mmHg 79%
    09:00 +30°C° 0 mm 5 mps 745 mmHg 71%
    10:00 +33°C° 0 mm 5 mps 745 mmHg 62%
    11:00 +33°C° 0.1 mm 5 mps 744 mmHg 61%
    12:00 +34°C° 0.1 mm 5 mps 744 mmHg 60%
    13:00 +34°C° 0.1 mm 5 mps 743 mmHg 59%
    14:00 +33°C° 0.4 mm 5 mps 743 mmHg 64%
    15:00 +32°C° 0.4 mm 6 mps 742 mmHg 69%
    16:00 +30°C° 0.4 mm 6 mps 742 mmHg 74%
    17:00 +29°C° 0.2 mm 6 mps 742 mmHg 78%
    18:00 +29°C° 0.2 mm 6 mps 743 mmHg 82%
    19:00 +28°C° 0.2 mm 6 mps 743 mmHg 86%
    20:00 +27°C° 0.1 mm 6 mps 743 mmHg 87%
    21:00 +27°C° 0.1 mm 5 mps 744 mmHg 87%
    22:00 +27°C° 0.1 mm 5 mps 744 mmHg 87%
    23:00 +27°C° 0.1 mm 5 mps 744 mmHg 88%
    Show more